W5CGC Weather Reports


time (UTC)temp
C
wind
direction
speed
KPH
gust
KPH
rain 1hr
cm
rain 24hr
cm
rain mn
cm
humidity
%
barometer
mb
20260903014547 32 211 0.0 4.8 0.00 0.00 0.00 39 1011.6
20260903013040 32 191 0.0 4.8 0.00 0.00 0.00 40 1011.5
20260903011540 32 219 0.0 3.2 0.00 0.00 0.00 39 1011.3
20260903010044 33 213 0.0 3.2 0.00 0.00 0.00 38 1011.2
20260903004540 33 211 1.6 4.8 0.00 0.00 0.00 38 1011.2
20260903003047 33 221 1.6 12.9 0.00 0.00 0.00 38 1011.2
20260903001545 34 242 3.2 11.3 0.00 0.00 0.00 34 1011.1
20260903000041 35 170 0.0 4.8 0.00 0.00 0.00 29 1010.9
20260902234546 35 174 0.0 6.4 0.00 0.00 0.00 28 1010.8
20260902233045 35 169 0.0 6.4 0.00 0.00 0.00 27 1010.8
20260902231543 36 131 1.6 4.8 0.00 0.00 0.00 27 1010.7
20260902230042 35 276 1.6 4.8 0.00 0.00 0.00 28 1010.7
20260902224543 36 157 0.0 6.4 0.00 0.00 0.00 28 1010.8
20260902223043 36 146 1.6 4.8 0.00 0.00 0.00 27 1010.8
20260902221543 36 155 0.0 3.2 0.00 0.00 0.00 28 1011.1
20260902220047 36 148 1.6 6.4 0.00 0.00 0.00 29 1011.3
20260902214542 36 158 1.6 8.0 0.00 0.00 0.00 30 1011.4
20260902213045 36 153 1.6 6.4 0.00 0.00 0.00 28 1011.5
20260902211556 36 160 0.0 4.8 0.00 0.00 0.00 28 1011.7
20260902210109 36 168 1.6 6.4 0.00 0.00 0.00 27 1012.1
20260902204544 36 175 1.6 4.8 0.00 0.00 0.00 27 1012.2
20260902203046 36 203 1.6 8.0 0.00 0.00 0.00 29 1012.3
20260902201546 36 143 1.6 3.2 0.00 0.00 0.00 29 1012.6
20260902200041 36 147 1.6 6.4 0.00 0.00 0.00 28 1012.9
20260902194545 36 166 1.6 9.7 0.00 0.00 0.00 27 1013.0
20260902193042 36 172 1.6 4.8 0.00 0.00 0.00 29 1013.2
20260902191546 36 169 0.0 6.4 0.00 0.00 0.00 29 1013.5
20260902190043 36 168 1.6 6.4 0.00 0.00 0.00 31 1013.7
20260902184542 36 163 1.6 6.4 0.00 0.00 0.00 31 1013.8
20260902183046 35 168 1.6 6.4 0.00 0.00 0.00 33 1014.2
20260902181541 35 154 0.0 6.4 0.00 0.00 0.00 33 1014.6
20260902180105 35 124 0.0 6.4 0.00 0.00 0.00 34 1014.9
20260902174544 34 128 0.0 8.0 0.00 0.00 0.00 34 1015.2
20260902173040 33 181 1.6 8.0 0.00 0.00 0.00 36 1015.3
20260902171549 32 172 1.6 9.7 0.00 0.00 0.00 39 1015.5
20260902170042 32 159 0.0 6.4 0.00 0.00 0.00 39 1015.7
20260902164542 31 149 1.6 6.4 0.00 0.00 0.00 41 1015.8
20260902163043 31 165 1.6 4.8 0.00 0.00 0.00 42 1015.9
20260902161543 31 204 3.2 6.4 0.00 0.00 0.00 43 1016.1
20260902160041 31 174 1.6 4.8 0.00 0.00 0.00 44 1016.1
20260902154540 30 169 1.6 8.0 0.00 0.00 0.00 47 1016.1
20260902153044 30 172 1.6 6.4 0.00 0.00 0.00 47 1016.1
20260902151546 30 0 0.0 1.6 0.00 0.00 0.00 48 1016.1
20260902150041 29 0 0.0 3.2 0.00 0.00 0.00 47 1016.0
20260902144555 29 0 0.0 3.2 0.00 0.00 0.00 48 1016.0
20260902143038 28 0 0.0 1.6 0.00 0.00 0.00 49 1016.2
20260902141540 28 118 0.0 4.8 0.00 0.00 0.00 51 1016.2
20260902140036 28 0 0.0 4.8 0.00 0.00 0.00 52 1016.0
20260902134543 27 104 0.0 1.6 0.00 0.00 0.00 53 1016.0
20260902133038 26 0 0.0 1.6 0.00 0.00 0.00 56 1015.9
20260902131541 26 0 0.0 0.0 0.00 0.00 0.00 58 1015.7
20260902130043 25 0 0.0 0.0 0.00 0.00 0.00 61 1015.6
20260902124542 24 0 0.0 0.0 0.00 0.00 0.00 62 1015.5
20260902123040 24 0 0.0 0.0 0.00 0.00 0.00 62 1015.3
20260902121542 24 0 0.0 0.0 0.00 0.00 0.00 60 1015.1
20260902120045 25 0 0.0 0.0 0.00 0.00 0.00 60 1015.1
20260902114540 25 0 0.0 0.0 0.00 0.00 0.00 58 1015.1
20260902113048 25 0 0.0 0.0 0.00 0.00 0.00 59 1015.2
20260902111545 25 0 0.0 1.6 0.00 0.00 0.00 60 1015.2
20260902110040 25 0 0.0 0.0 0.00 0.00 0.00 59 1015.2
20260902104545 25 0 0.0 0.0 0.00 0.00 0.00 58 1015.1
20260902103042 25 0 0.0 0.0 0.00 0.00 0.00 59 1015.2
20260902101540 25 0 0.0 0.0 0.00 0.00 0.00 58 1015.2
20260902100042 25 0 0.0 0.0 0.00 0.00 0.00 58 1015.1
20260902094537 25 0 0.0 0.0 0.00 0.00 0.00 57 1015.0
20260902093043 26 0 0.0 0.0 0.00 0.00 0.00 55 1015.1
20260902091548 26 0 0.0 0.0 0.00 0.00 0.00 54 1015.1
20260902090037 26 0 0.0 0.0 0.00 0.00 0.00 53 1015.2
20260902084542 27 0 0.0 0.0 0.00 0.00 0.00 51 1015.1
20260902083042 27 0 0.0 0.0 0.00 0.00 0.00 49 1015.1
20260902081540 28 0 0.0 1.6 0.00 0.00 0.00 48 1015.2
20260902080035 28 111 1.6 6.4 0.00 0.00 0.00 47 1015.1
20260902074541 28 0 0.0 0.0 0.00 0.00 0.00 47 1015.1
20260902073040 28 0 0.0 11.3 0.00 0.00 0.00 46 1015.2
20260902071543 29 118 0.0 8.0 0.00 0.00 0.00 46 1015.3
20260902070042 29 112 0.0 6.4 0.00 0.00 0.00 46 1015.3
20260902064551 29 153 1.6 9.7 0.00 0.00 0.00 45 1015.3
20260902063046 30 118 1.6 8.0 0.00 0.00 0.00 45 1015.1
20260902061552 30 156 0.0 12.9 0.00 0.00 0.00 45 1015.0
20260902060038 30 129 0.0 9.7 0.00 0.00 0.00 45 1014.9
20260902054545 30 150 0.0 4.8 0.00 0.00 0.00 44 1014.6
20260902053039 30 118 1.6 8.0 0.00 0.00 0.00 43 1014.4
20260902051543 30 127 3.2 11.3 0.00 0.00 0.00 42 1014.4
20260902050046 30 32 1.6 9.7 0.00 0.00 0.00 43 1014.4
20260902044543 28 141 0.0 4.8 0.00 0.00 0.00 46 1014.3
20260902043038 28 0 0.0 0.0 0.00 0.00 0.00 46 1014.1
20260902041539 28 0 0.0 0.0 0.00 0.00 0.00 45 1014.0
20260902040041 28 0 0.0 0.0 0.00 0.00 0.00 45 1014.0
20260902034555 28 0 0.0 0.0 0.00 0.00 0.00 45 1014.1
20260902033054 28 0 0.0 0.0 0.00 0.00 0.00 44 1014.1
20260902031540 29 0 0.0 0.0 0.00 0.00 0.00 44 1014.0
20260902030044 29 0 0.0 0.0 0.00 0.00 0.00 43 1013.7
20260902024545 30 0 0.0 0.0 0.00 0.00 0.00 41 1013.5
20260902023038 30 0 0.0 0.0 0.00 0.00 0.00 40 1013.4
20260902021538 30 0 0.0 0.0 0.00 0.00 0.00 40 1013.1
20260902020042 31 0 0.0 0.0 0.00 0.00 0.00 40 1013.0